Regional Weather Roundup
Issued by NWS

Home | Current Version | Previous Version | Text Only | Print | Product List | Glossary On
Versions: 1 2 3 4 5 6 7 8 9 10 11 12 13 14 15 16 17 18 19 20 21 22 23 24 25 26 27
000
ASUS46 KSEW 242110
RWRWA

WASHINGTON REGIONAL WEATHER ROUNDUP
NATIONAL WEATHER SERVICE SEATTLE WA
200 PM PDT FRI OCT 24 2014

NOTE:"FAIR" INDICATES FEW OR NO CLOUDS BELOW 12,000 FEET WITH NO
SIGNIFICANT WEATHER AND/OR OBSTRUCTIONS TO VISIBILITY.

WAZ505-507>509-242200-
SEATTLE, TACOMA, EVERETT, AND VICINITY

CITY           SKY/WX    TMP DP  RH WIND       PRES   REMARKS
EVERETT        CLOUDY    56  45  66 N6        29.98F
BOEING FIELD   CLOUDY    58  48  69 NW3       29.97F
RENTON         CLOUDY    57  51  80 NW7       29.96F
SEATAC AIRPORT CLOUDY    56  45  66 N9        29.97F
JBLM-MCCHORD   CLOUDY    56  49  77 NE6       29.96F
PUYALLUP       NOT AVBL
JBLM-FT LEWIS  DRIZZLE   55  50  81 NW6       29.95F
TACOMA NARROWS CLOUDY    54  48  80 N8        29.96F
$$

WAZ001-503-506-510-514-515-242200-
NORTH INTERIOR

CITY           SKY/WX    TMP DP  RH WIND       PRES   REMARKS
BELLINGHAM     CLOUDY    56  44  64 N14       30.01F
FRIDAY HARBOR  CLOUDY    56  45  66 NE6       30.02F
EASTSOUND      CLOUDY    54  45  71 NE5       30.01F
PORT ANGELES   CLOUDY    53  46  77 NE3       30.01S
NAS WHIDBEY    CLOUDY    60  46  59 NE7       30.00F
BURLINGTON     SUNNY    N/A N/A N/A NE6       30.01F
$$

WAZ020-022-039-040-504-511-512-242200-
SOUTHWEST INTERIOR

CITY           SKY/WX    TMP DP  RH WIND       PRES   REMARKS
SHELTON        CLOUDY    54  48  80 NE5       29.95F
OLYMPIA        CLOUDY    53  49  86 N7        29.96F
CHEHALIS       FAIR      54  52  94 VRB3      29.95F
KELSO          CLOUDY    54  48  82 N5        29.95F
VANCOUVER      CLOUDY    54  50  86 NW5       29.91F
SCAPPOOSE, OR  CLOUDY    56  51  84 W3        29.91F
PORTLAND, OR   LGT RAIN  55  51  86 NW5       29.92F
$$

WAZ021-516-517-242200-
WASHINGTON COAST

CITY           SKY/WX    TMP DP  RH WIND       PRES   REMARKS
FORKS          CLOUDY    57  49  74 NE8       29.94F
HOQUIAM        CLOUDY    55  50  83 NE10      29.93F
ASTORIA, OR    CLOUDY    57  50  77 E5        29.89F
$$

WAZ019-023-024-040-518-519-242200-
CASCADE MOUNTAINS AND COLUMBIA GORGE

CITY           SKY/WX    TMP DP  RH WIND       PRES   REMARKS
STAMPEDE PASS  NOT AVBL
TROUTDALE, OR  CLOUDY    57  47  69 E22G29    29.90F
THE DALLES, OR CLOUDY    54  46  74 CALM      29.99F
$$

WAZ026-027-041>044-520-521-242200-
EAST SLOPES

CITY           SKY/WX    TMP DP  RH WIND       PRES   REMARKS
OMAK           MOSUNNY   54  35  48 CALM      30.07F
WENATCHEE      CLOUDY    52  39  61 W3        30.05F
ELLENSBURG     CLOUDY    51  41  68 CALM      30.03F
YAKIMA         CLOUDY    54  40  59 W3        30.03F
$$

WAZ028-034-035-242200-
COLUMBIA BASIN

CITY           SKY/WX    TMP DP  RH WIND       PRES   REMARKS
EPHRATA        CLOUDY    54  43  66 NE6       30.04F
MOSES LAKE     CLOUDY    56  43  61 NE5       30.05F
PASCO          CLOUDY    59  48  67 NW6       30.03F
HERMISTON, OR  CLOUDY    58  50  75 N6        30.00F
$$

WAZ036>038-242200-
NORTHEAST WASHINGTON

CITY           SKY/WX    TMP DP  RH WIND       PRES   REMARKS
SPOKANE GEIGER CLOUDY    53  41  63 SE6       30.06F
SPOKANE FELTS  CLOUDY    56  42  59 E3        30.07F
FAIRCHILD AFB  CLOUDY    53  40  63 SE7       30.06F
COEURDALENE,ID CLOUDY    54  39  58 S5        30.06F
DEER PARK      CLOUDY    53  41  63 VRB3      30.08F
$$

WAZ029>033-242200-
SOUTHEAST WASHINGTON

CITY           SKY/WX    TMP DP  RH WIND       PRES   REMARKS
PULLMAN        CLOUDY    54  45  71 E14       30.06F
LEWISTON, ID   CLOUDY    58  49  72 NE5       30.04F
WALLA WALLA    LGT RAIN  61  47  59 N6        30.01F
PENDLETON, OR  LGT RAIN  57  50  77 NE12      29.99F
$$



USA.gov is the U.S. government's official web portal to all federal, state and local government web resources and services.